This demonstration page uses our WeatherBlox Daily Observations layout. Learn more.

Left ArrowRight Arrow

Hourly Observations for April 22, 2022

Temp ( °F °C ) Dew Point ( °F °C ) Humidity (%) Winds ( mph kmh ) Pressure ( in mb ) Visibility ( mi km ) Precip ( " mm )
12:56 am 00:56 Cloudy 60 15.7 44 6.4 54 54 ESE 10 17 30.07 1018 10 16 0.00 0.00
1:56 am 01:56 Cloudy with Thunderstorms 61 16.1 44 6.8 54 54 SE 9 15 30.07 1018 10 16 0.00 0.00
2:56 am 02:56 Cloudy 61 16 46 8 59 59 ESE 9 15 30.03 1017 10 16 0.01 0.25
3:56 am 03:56 Mostly Cloudy with Thunderstorms 62 16.8 50 10.2 65 65 SE 16 26 29.99 1016 10 16 0.00 0.00
4:56 am 04:56 Cloudy with Light Showers 60 15.8 55 12.7 82 82 SE 13 20 29.96 1015 10 16 0.00 0.00
5:56 am 05:56 Cloudy 61 16.2 57 14 87 87 SE 12 19 29.95 1014 10 16 0.00 0.00
6:56 am 06:56 Cloudy 62 16.7 60 15.6 93 93 ESE 7 11 29.94 1014 10 16 0.00 0.00
7:56 am 07:56 Mostly Cloudy 64 18 63 17.3 96 96 SSE 12 19 29.93 1014 10 16 0.00 0.00
8:56 am 08:56 Mostly Cloudy 68 20.2 64 17.8 86 86 SSE 21 33 29.90 1013 10 16 0.00 0.00
9:56 am 09:56 Cloudy 69 20.8 64 17.8 83 83 SSE 12 19 29.89 1012 10 16 0.00 0.00
10:56 am 10:56 Cloudy 72 22.2 64 18 77 77 SSE 18 30 29.87 1012 10 16 0.00 0.00
11:56 am 11:56 Cloudy 74 23.1 65 18.2 74 74 S 20 31 29.86 1011 8 13 0.00 0.00
12:56 pm 12:56 Cloudy 77 25.2 64 17.9 64 64 S 22 35 29.83 1010 8 13 0.00 0.00
1:56 pm 13:56 Cloudy 79 25.9 64 17.5 60 60 S 18 30 29.80 1009 9 14 0.00 0.00
2:56 pm 14:56 Mostly Cloudy 81 27.4 62 16.6 52 52 S 23 37 29.77 1008 8 13 0.00 0.00
3:56 pm 15:56 undefined 83 28.4 62 16.6 49 49 S 25 41 29.73 1007 7 11 0.00 0.00
4:38 pm 16:38 Mostly Sunny 84 29 61 16 45 45 S 32 52 29.71 1006 10 16 0.00 0.00
4:56 pm 16:56 Partly Cloudy 83 28.5 61 16.1 47 47 S 32 52 29.71 1006 10 16 0.00 0.00
5:56 pm 17:56 Mostly Cloudy 81 27.1 61 16.1 51 51 S 24 39 29.71 1006 7 11 0.00 0.00
6:56 pm 18:56 Cloudy 79 25.9 61 15.9 54 54 S 22 35 29.71 1006 9 14 0.00 0.00
7:56 pm 19:56 Cloudy 77 25.1 60 15.7 56 56 S 24 39 29.70 1006 10 16 0.00 0.00
8:56 pm 20:56 Cloudy 75 24.1 61 16.1 61 61 S 22 35 29.69 1006 10 16 0.00 0.00
9:56 pm 21:56 Cloudy 75 24 61 16 61 61 S 18 30 29.70 1006 10 16 0.00 0.00
10:56 pm 22:56 Cloudy 75 23.7 60 15.7 61 61 S 22 35 29.69 1005 10 16 0.00 0.00
11:56 pm 23:56 Partly Cloudy 74 23.4 59 15.2 60 60 S 22 35 29.66 1004 10 16 0.00 0.00

Powered by AerisWeather